Погода в Петровском

Россия / Республика Башкортостан     53°37′00″N   56°23′15″E
темп.,
°C
ветер,
м/с
пор.,
м/с
влажн.,
%
обл.,
%
осадки,
мм/ч
давл.,
гПа
погр.,
м
19 мая, ср
ср1923:00+14ссз38955 0.9 1017185
02:00+13св22940 0.0 101623
05:00+14вюв614820 0.0 1016373
08:00+16в713760 0.0 1017476
11:00+20в67530 0.0 10181102
14:00+22в56430 0.0 10191719
17:00+22вюв57410 0.0 10191900
20:00+18вюв36555 0.0 1019105
20 мая, чт
чт2023:00+14вюв310631 0.0 1021166
02:00+14вюв513620 0.0 1021354
05:00+12вюв5126116 0.0 1022296
08:00+15вюв512580 0.0 1022574
11:00+20юв68383 0.0 10211420
14:00+23юв57310 0.0 10202015
17:00+23юв57350 0.0 10192114
20:00+19юв48500 0.0 1018174
21 мая, пт
пт2123:00+14вюв39554 0.0 1019153
02:00+16юв6154441 0.0 1018360
05:00+13юв495399 0.0 1019174
08:00+17юв495463 0.0 1019332
11:00+20ю5852100 0.8 10191152
14:00+23ююз6752100 0.4 10181680
17:00+18ююз4880100 6.5 1019323
20:00+17ю377973 2.1 1019134
22 мая, сб
сб2223:00+14ююв33891 2.1 102047
02:00+13ююв339025 0.1 102036
05:00+12ююв3390100 0.1 102135
08:00+16ю24786 0.0 1021182
11:00+20зюз466094 0.0 10211208
14:00+22з475355 0.0 10211908
17:00+21зюз1269100 0.0 1022151
20:00+19юз0171100 0.0 102111
23 мая, вс
вс2323:00+15вюв1183100 0.0 102211
02:00+14вюв228590 0.0 102216
05:00+14юв2282100 0.0 102116
08:00+19ююв2367100 0.0 1021148
11:00+23зсз33566 0.0 1022770
14:00+25сз215226 0.0 1021664
17:00+26с225063 0.0 1021728
20:00+22ссв1171100 0.0 102014